Weather in Belush'ye

Russia / Nenets Autonomous Okrug     66°53′34″N   47°36′29″E
temp.,
°C
wind,
m/s
gust,
m/s
humid.,
%
clouds,
%
prec.,
mm/h
press.,
hPa
HPBL,
m
27 february, sat
sat2700:00−15s7119498 0.3 1006426
03:00−15s7119399 0.4 1007393
06:00−15s71092100 0.1 1006349
09:00−15s81194100 0.3 1007401
12:00−14s81193100 0.3 1007408
15:00−13s71094100 0.7 1007408
18:00−14s5895100 0.4 1007304
21:00−13s4795100 0.8 1007210
28 february, sun
sun2800:00−16ssw449795 0.1 100744
03:00−16ssw459795 0.1 100740
06:00−14s459687 0.1 1007113
09:00−12s569593 0.5 1008121
12:00−7sw359697 0.1 1008147
15:00−6wsw469698 0.4 1009174
18:00−10wsw459692 0.1 100965
21:00−11ssw459796 0.1 100983
1 march, mon
mon100:00−7ssw61094100 0.1 1007391
03:00−6ssw81395100 0.7 1005442
06:00−6sw91594100 0.6 1001470
09:00−4ssw101595100 1.3 996481
12:00−2sw101596100 1.9 992728
15:000wsw6999100 4.5 991291
18:000wnw71098100 3.1 989337
21:00−2w6995100 3.3 989295
2 march, tue
tue200:00−5wsw589698 0.3 989148
03:00−4wsw599596 0.7 989200
06:00−9sw569449 0.0 98876
09:00−6sw7119551 0.2 987316
12:00−1wsw81087100 0.9 987784
15:00−2wnw101496100 2.0 988786
18:00−4nw121895100 1.7 989884
21:00−5nnw141993100 3.7 992861
3 march, wed
wed300:00−6nw111687100 0.7 994599
03:00−10nw8139064 0.8 995209
06:00−11wnw610930 0.0 996139
09:00−11wnw69932 0.0 997134
12:00−8wnw6109257 0.0 997274
15:00−7w589478 0.1 997243
18:00−6w61195100 0.4 996284
21:00−8w699499 0.4 996189